sat.trackr.live / text

‹ back to catalog

STARLINK-5238

NORAD 54188 · 2022-141AH

PAYLOAD ACTIVE UNKNOWN

§ Identity

Operator
Country
US
Launch date
2022-10-28
Launch site
AFWTR
Launch vehicle
Mass (kg)
RCS (m²)

Purposes: comms

External: N2YO · Heavens-Above · Gunter

§ Orbital elements

Epoch: 2026-05-25T01:13:54.544800Z

Period
95.44 min
Inclination
53.2128°
Eccentricity
0.0001313
Mean motion
15.08837462 rev/d
Perigee alt
538.8 km
Apogee alt
540.7 km
Semi-major
6,917.9 km
B*
2.0941e-5
RAAN
11.4801°
Arg perigee
79.6441°
Mean anomaly
280.4699°
Rev number
19,752

§ Raw data

STARLINK-52381 54188U 22141AH  26145.05132575  .00000045  00000+0  20941-4 0  99902 54188  53.2128  11.4801 0001313  79.6441 280.4699 15.08837462197529

JSON: /api/v1/satellites/54188 · /tle

For live sub-satellite position, see the globe view (requires WebGL).

§ Visibility from observer

Set your observer location to see the next 7 days of passes ≥ 10°. The values pass through the URL so the page stays shareable.

No JS? Fill the form by hand. The geolocation button needs JavaScript.